Alturas, CA

9:47 PM PST on December 10, 2019 (GMT -0800)
Alturas Municipal

Weather History for KAAT - October, 2019

Change the Weather History Date:

Thursday, October 10, 2019

  Actual Average Record
Temperature  
Mean Temperature 36 °F 49 °F  
Max Temperature 57 °F 68 °F 90 °F (1996)
Min Temperature 15 °F 29 °F 13 °F (1985)
Degree Days  
Heating Degree Days 29 16  
Month to date heating degree days 210 148  
Since 1 July heating degree days 516 525  
Cooling Degree Days 0 0  
Month to date cooling degree days 0 0  
Year to date cooling degree days 217 156  
Moisture  
Dew Point 10 °F    
Average Humidity 42    
Maximum Humidity 74    
Minimum Humidity 12    
Precipitation  
Precipitation 0.00 in 0.03 in 0.51 in (1962)
Month to date precipitation 0.03 0.20  
Year to date precipitation 12.26 9.86  
Sea Level Pressure  
Sea Level Pressure 30.30 in    
Wind  
Wind Speed 3 mph ()    
Max Wind Speed 10 mph    
Max Gust Speed 14 mph    
Visibility 9.7 miles    
Events      
T = Trace of Precipitation, MM = Missing Value Source: Averaged Metar Reports

Daily Weather History Graph

Daily Weather History Graph

Search for Another Location

Airport or City:

Astronomy

Oct. 10, 2019 Rise Set
Actual Time 7:08 AM PDT 6:29 PM PDT
Civil Twilight 6:40 AM PDT 6:57 PM PDT
Nautical Twilight 6:08 AM PDT 7:29 PM PDT
Astronomical Twilight 5:36 AM PDT 8:01 PM PDT
Moon 5:36 PM PDT (10/10) 3:53 AM PDT (10/10)
Length of Visible Light 12h 16m
Length of Day
11h 20m
Waxing Gibbous, 91% of the Moon is Illuminated
Oct 10
Waxing Gibbous
Oct 13
Full
Oct 21
Last Quarter
Oct 27
New
Nov 4
First Quarter

Hourly Weather History & Observations

Time (PDT) Temp. Windchill Dew Point Humidity Pressure Visibility Wind Dir Wind Speed Gust Speed Precip Events Conditions
12:55 AM 34.0 °F 26.0 °F 12.9 °F 42% 30.27 in 10.0 mi NE 10.4 mph - N/A   Clear
1:55 AM 30.0 °F 25.2 °F 12.0 °F 47% 30.28 in 10.0 mi NE 4.6 mph - N/A   Clear
2:55 AM 27.0 °F 21.6 °F 12.0 °F 53% 30.28 in 10.0 mi NNW 4.6 mph - N/A   Clear
3:55 AM 24.1 °F 19.7 °F 12.9 °F 62% 30.29 in 10.0 mi West 3.5 mph - N/A   Clear
4:55 AM 19.9 °F 13.4 °F 10.9 °F 68% 30.31 in 10.0 mi NNW 4.6 mph - N/A   Clear
5:55 AM 19.0 °F 11.1 °F 10.9 °F 71% 30.35 in 10.0 mi SSW 5.8 mph - N/A   Clear
6:55 AM 16.0 °F 10.4 °F 9.0 °F 74% 30.38 in 10.0 mi West 3.5 mph - N/A   Clear
7:55 AM 21.9 °F - 14.0 °F 72% 30.38 in 8.0 mi Calm Calm - N/A   Clear
8:55 AM 28.9 °F - 16.0 °F 58% 30.38 in 10.0 mi Calm Calm - N/A   Clear
9:55 AM 36.0 °F - 14.0 °F 41% 30.36 in 10.0 mi Calm Calm - N/A   Clear
10:55 AM 42.1 °F - 7.0 °F 24% 30.33 in 10.0 mi Calm Calm - N/A   Clear
11:55 AM - - - N/A% 30.29 in - North - - N/A   Unknown
12:55 PM - - - N/A% 30.27 in - North - - N/A   Unknown
1:55 PM - - - N/A% 30.26 in - North - - N/A   Unknown
2:55 PM 55.9 °F - 5.0 °F 13% 30.25 in 10.0 mi ENE 4.6 mph - N/A   Clear
3:55 PM 55.9 °F - 5.0 °F 13% 30.25 in 10.0 mi South 5.8 mph - N/A   Clear
4:55 PM 55.9 °F - 6.1 °F 14% 30.25 in 10.0 mi Calm Calm - N/A   Clear
5:55 PM 55.0 °F - 6.1 °F 14% 30.26 in 10.0 mi Calm Calm - N/A   Clear
6:55 PM 46.9 °F - 8.1 °F 21% 30.30 in 10.0 mi East 4.6 mph - N/A   Clear
7:55 PM 45.0 °F 43.5 °F 8.1 °F 22% 30.28 in 10.0 mi SE 3.5 mph - N/A   Clear
8:55 PM 37.9 °F - 10.0 °F 32% 30.30 in 10.0 mi Calm Calm - N/A   Clear
9:55 PM 36.0 °F - 10.9 °F 36% 30.28 in 8.0 mi Calm Calm - N/A   Clear
10:55 PM 30.9 °F - 10.0 °F 42% 30.27 in 8.0 mi Calm Calm - N/A   Clear
11:55 PM 26.1 °F - 10.9 °F 53% 30.24 in 9.0 mi Calm Calm - N/A   Clear